Hourly Data Report for October 30, 2015

All times are specified in Local Standard Time (LST). Add 1 hour to adjust for Daylight Saving Time where and when it is observed.

SAINT JOHN A
NEW BRUNSWICK

45°18'58.000" N
65°53'24.000" W
108.80 m
8104901
71609
YSJ

Download Data

Hourly Data (October 2015)
Hourly Data Report for October 30, 2015
Temp Definition
°C
Dew Point Temp Definition
°C
Rel Hum Definition
%
Wind Dir Definition
10's deg

Wind Spd Definition
km/h
Visibility Definition
km
Stn Press Definition
kPa
Hmdx Definition


Wind Chill Definition


Weather Definition


TIME
00:00 Legend Double Dagger 9.4 6.5 82 30 17 24.1 98.27     LegendNANA
01:00 Legend Double Dagger 8.7 3.2 68 28 14 24.1 98.31     LegendNANA
02:00 Legend Double Dagger 8.4 3.7 72 25 9 24.1 98.34     Cloudy
03:00 Legend Double Dagger 7.4 3.5 76 22 13 24.1 98.36     LegendNANA
04:00 Legend Double Dagger 7.6 2.7 71 25 19 24.1 98.40     LegendNANA
05:00 Legend Double Dagger 6.9 1.8 70 24 16 24.1 98.41     Clear
06:00 Legend Double Dagger 5.7 2.2 78 22 16 24.1 98.48     LegendNANA
07:00 Legend Double Dagger 7.7 1.8 66 23 23 24.1 98.45     LegendNANA
08:00 Legend Double Dagger 8.7 2.1 63 23 21 24.1 98.47     Mainly Clear
09:00
10:00 Legend Double Dagger 9.9 2.1 58 25 30 24.1 98.61     LegendNANA
11:00 Legend Double Dagger 10.2 1.9 56 27 34 24.1 98.65     Mostly Cloudy
12:00 Legend Double Dagger 11.2 0.6 48 28 32 24.1 98.71     LegendNANA
13:00 Legend Double Dagger 10.7 -2.3 40 28 36 24.1 98.77     LegendNANA
14:00 Legend Double Dagger 10.2 -3.5 38 28 33 24.1 98.86     Mainly Clear
15:00 Legend Double Dagger 8.9 -5.0 37 29 32 24.1 98.99     LegendNANA
16:00 Legend Double Dagger 7.3 -5.8 39 30 27 24.1 99.14     LegendNANA
17:00 Legend Double Dagger 6.5 -4.9 44 30 21 24.1 99.25     Mostly Cloudy
18:00 Legend Double Dagger 5.3 -4.6 49 28 23 24.1 99.37     LegendNANA
19:00 Legend Double Dagger 4.4 -4.6 52 28 21 24.1 99.50     LegendNANA
20:00 Legend Double Dagger 4.4 -4.9 51 28 21 24.1 99.59     Clear
21:00 Legend Double Dagger 3.4 -5.0 54 28 16 24.1 99.69     LegendNANA
22:00 Legend Double Dagger 2.9 -5.8 53 29 18 24.1 99.76     LegendNANA
23:00 Legend Double Dagger 2.3 -5.8 55 31 21 24.1 99.82     Clear

Notes on Data Quality.

Legend

  • E = Estimated
  • M = Missing
  • NA = Not Available
  • ‡ = Partner data that is not subject to review by the National Climate Archives
Date modified: